Zurück zum Katalog

QIANFAN-185

AktivKommunikationPO
NORAD 69403·PAYLOAD·🇨🇳 China

Gestartet Jun 5, 2026 von Wenchang Space Launch Site

Loading…

Nächste Überflüge (nächste 24 Stunden)

TLE

AktuellSource: Space-Track

Epoche: Sep 14, 2026, 13:30 UTC

1 69403U 26125C   26257.56290220  .00000008  00000-0 -58381-5 0  9995
2 69403  88.9898 270.8766 0001845  99.0683 261.0677 13.51017614 14040

Verfolge QIANFAN-185 in Echtzeit mit AllMySat

Download on the App Store